Regional Weather Roundup
Issued by NWS

Home | Current Version | Previous Version | Graphics & Text | Print | Product List | Glossary On
Versions: 1 2 3 4 5 6 7 8 9 10 11 12 13 14 15 16 17 18 19 20 21 22 23 24 25 26 27 28 29 30 31 32 33 34 35 36 37 38 39 40 41 42 43 44 45 46 47 48 49 50
000
ASUS43 KLMK 221102
RWRKY
KENTUCKY REGIONAL WEATHER ROUNDUP
NATIONAL WEATHER SERVICE LOUISVILLE KY
600 AM EST MON JAN 22 2018

NOTE "FAIR" INDICATES FEW OR NO CLOUDS BELOW 12,000 FEET
WITH NO SIGNIFICANT WEATHER AND/OR OBSTRUCTIONS TO VISIBILITY.

KYZ001>023-026-027-061>063-070>075-221200-
WESTERN AND SOUTH CENTRAL KENTUCKY

CITY           SKY/WX    TMP DP  RH WIND       PRES   REMARKS
PADUCAH        RAIN      60  46  59 S16G30    29.71S
HENDERSON      FAIR      58  45  62 S22G33    29.74F
OWENSBORO      MOCLDY    55  44  66 S17       29.80F
HOPKINSVILLE   MOCLDY    59  43  56 S16G22    29.82F
BOWLING GREEN  FAIR      59  44  57 S13G25    29.88F
GLASGOW        NOT AVBL
$$

KYZ024-025-028>034-038-045-046-053-221200-
NORTH CENTRAL KENTUCKY

CITY           SKY/WX    TMP DP  RH WIND       PRES   REMARKS
LOUISVILLE/SDF CLOUDY    59  44  57 S15G26    29.87F
LOUISVILLE/LOU FAIR      57  45  64 S12       29.88F
FORT KNOX      FAIR      55  44  67 SE17G25   29.86F
$$

KYZ035>037-039>044-047>052-055>060-089>105-221200-
NORTHEAST KENTUCKY

CITY           SKY/WX    TMP DP  RH WIND       PRES   REMARKS
LEXINGTON      FAIR      56  43  61 S14       29.94F
COVINGTON      CLOUDY    54  45  71 S9        29.89F
FRANKFORT      FAIR      54  42  64 S8        29.91F
$$

KYZ054-064>069-076>088-106>120-221200-
SOUTHEAST KENTUCKY

CITY           SKY/WX    TMP DP  RH WIND       PRES   REMARKS
JACKSON        MOCLDY    54  42  64 SW3       30.01F
LONDON         FAIR      56  42  59 S8        30.01F
SOMERSET       NOT AVBL
MIDDLESBORO    FAIR      38  38 100 CALM      30.09S
MONTICELLO     FAIR      58  43  57 SE15      29.99F
$$





USA.gov is the U.S. government's official web portal to all federal, state and local government web resources and services.